CW9507 Weather Reports


time (UTC)temp
F
wind
direction
speed
knots
gust
knots
rain 1hr
in
rain 24hr
in
rain mn
in
humidity
%
barometer
mb
20260508194536 62 199 0.0 7.8 0.13 0.51 0.14 50 1008.2
20260508193034 62 276 0.0 3.5 0.13 0.51 0.14 48 1008.3
20260508191537 62 142 0.0 5.2 0.06 0.43 0.06 49 1008.6
20260508190034 61 267 0.0 7.8 0.04 0.41 0.04 52 1008.9
20260508184529 62 200 0.0 4.3 0.01 0.41 0.01 53 1009.0
20260508183023 61 103 0.0 6.1 0.01 0.41 0.01 58 1009.1
20260508181531 61 206 0.0 4.3 0.00 0.40 0.00 59 1009.2
20260508180016 59 190 0.0 2.6 0.00 0.40 0.00 61 1009.4
20260508174513 59 169 0.0 0.9 0.00 0.49 0.00 62 1009.7
20260508173010 58 171 0.0 0.9 0.00 0.49 0.00 63 1010.2
20260508171513 58 118 0.0 0.0 0.00 0.49 0.00 62 1010.3
20260508170005 58 205 0.0 0.0 0.00 0.49 0.00 61 1010.5
20260508164503 58 254 0.0 0.0 0.00 0.61 0.00 63 1010.8
20260508163059 57 223 0.0 1.7 0.00 0.61 0.00 65 1011.0
20260508161557 56 112 0.0 0.0 0.00 0.61 0.00 64 1011.3
20260508160054 55 157 0.0 0.0 0.00 0.61 0.00 65 1011.4
20260508154559 55 290 0.0 0.9 0.00 0.70 0.00 66 1011.5
20260508153055 54 198 0.0 0.0 0.00 0.70 0.00 65 1011.4
20260508151554 54 196 0.0 0.0 0.00 0.70 0.00 68 1011.4
20260508150049 54 346 0.0 0.9 0.00 0.70 0.00 66 1011.5
20260508144549 54 333 0.0 0.9 0.00 0.70 0.00 72 1011.6
20260508143045 53 182 0.0 0.9 0.00 0.70 0.00 75 1011.8
20260508141609 52 17 0.0 0.0 0.00 0.70 0.00 79 1011.9
20260508140039 51 329 0.0 0.0 0.00 0.70 0.00 80 1011.8
20260508134551 51 254 0.0 0.0 0.00 0.70 0.00 81 1011.9
20260508133035 50 161 0.0 0.0 0.00 0.70 0.00 84 1012.0
20260508131535 50 228 0.0 0.9 0.00 0.70 0.00 84 1012.0
20260508130029 49 165 0.0 0.0 0.00 0.70 0.00 86 1012.0
20260508124527 48 162 0.0 1.7 0.00 0.70 0.00 88 1011.9
20260508123030 47 210 0.0 2.6 0.00 0.70 0.00 91 1011.9
20260508121521 46 246 0.0 0.9 0.00 0.70 0.00 92 1011.8
20260508120018 45 241 0.0 0.0 0.00 0.70 0.00 93 1011.7
20260508114518 44 241 0.0 0.0 0.00 0.70 0.00 93 1011.6
20260508113017 43 241 0.0 0.0 0.00 0.70 0.00 93 1011.5
20260508111517 43 241 0.0 0.0 0.00 0.70 0.00 93 1011.2
20260508110017 43 254 0.0 0.0 0.00 0.70 0.00 92 1011.0
20260508104520 43 254 0.0 0.0 0.00 0.70 0.00 92 1011.0
20260508103016 43 254 0.0 0.0 0.00 0.70 0.00 92 1011.0
20260508101518 43 254 0.0 0.0 0.00 0.70 0.00 92 1011.0
20260508100013 43 254 0.0 0.0 0.00 0.70 0.00 92 1011.2
20260508094513 43 254 0.0 0.0 0.00 0.70 0.00 92 1011.2
20260508093016 42 254 0.0 0.0 0.00 0.70 0.00 92 1011.2
20260508091511 42 254 0.0 0.0 0.00 0.70 0.00 91 1011.2
20260508090021 42 254 0.0 0.0 0.00 0.70 0.00 91 1011.0
20260508084509 42 254 0.0 0.0 0.00 0.70 0.00 91 1011.1
20260508083008 42 254 0.0 0.0 0.00 0.70 0.00 89 1011.1
20260508081509 43 254 0.0 0.0 0.00 0.70 0.00 89 1011.2
20260508080006 43 254 0.0 0.0 0.00 0.70 0.00 89 1011.2
20260508074506 44 254 0.0 0.0 0.00 0.70 0.00 89 1011.2
20260508073005 44 255 0.0 0.0 0.00 0.70 0.00 89 1011.1
20260508071506 44 255 0.0 0.0 0.00 0.70 0.00 90 1011.4
20260508070002 44 255 0.0 0.0 0.00 0.70 0.00 89 1011.4
20260508064502 44 255 0.0 0.0 0.00 0.70 0.00 88 1011.5
20260508063001 44 163 0.0 0.0 0.00 0.70 0.00 88 1011.4
20260508061604 43 163 0.0 0.0 0.00 0.70 0.00 87 1011.5
20260508054557 42 238 0.0 0.0 0.00 0.70 0.00 86 1011.7
20260508053056 42 238 0.0 0.0 0.00 0.70 0.00 85 1011.8
20260508051554 43 238 0.0 0.0 0.00 0.70 0.00 84 1011.7
20260508050051 43 238 0.0 0.0 0.00 0.70 0.00 83 1011.6
20260508044548 44 238 0.0 0.0 0.00 0.70 0.00 81 1011.7
20260508043046 45 238 0.0 0.0 0.00 0.70 0.00 80 1011.6
20260508041543 46 238 0.0 0.0 0.00 0.70 0.00 80 1011.7
20260508040039 46 238 0.0 0.0 0.00 0.70 0.00 77 1011.8
20260508034539 47 238 0.0 0.0 0.00 0.70 0.70 74 1012.0
20260508033039 48 238 0.0 0.0 0.00 0.70 0.70 73 1011.9
20260508031538 50 238 0.0 0.0 0.00 0.70 0.70 73 1012.0
20260508030043 50 229 0.0 0.0 0.00 0.70 0.70 72 1012.1
20260508024539 50 214 0.0 0.0 0.04 0.70 0.70 71 1012.1
20260508023036 50 189 0.0 3.5 0.06 0.70 0.70 68 1012.1
20260508021545 51 259 0.0 2.6 0.07 0.70 0.70 67 1012.0
20260508020035 51 184 0.0 0.0 0.07 0.70 0.70 65 1012.0
20260508014534 51 175 1.7 8.7 0.03 0.66 0.66 63 1011.9
20260508013040 52 236 0.0 6.1 0.01 0.64 0.64 60 1011.8
20260508011537 53 213 0.0 0.9 0.00 0.63 0.63 55 1011.3
20260508010034 53 248 0.0 0.0 0.00 0.63 0.63 53 1011.2
20260508004538 54 243 0.0 2.6 0.00 0.63 0.63 54 1011.3
20260508003032 54 246 0.0 0.0 0.00 0.63 0.63 52 1011.0
20260508001533 54 263 0.0 0.0 0.00 0.63 0.63 52 1010.9
20260508000030 55 186 0.0 0.0 0.01 0.63 0.63 47 1011.0
20260507234530 56 249 0.0 3.5 0.01 0.63 0.63 46 1010.9
20260507233036 56 222 0.0 0.0 0.01 0.63 0.63 44 1010.9
20260507231528 56 195 0.0 3.5 0.01 0.63 0.63 42 1010.9
20260507230027 56 236 0.0 0.9 0.00 0.62 0.62 43 1011.1
20260507224531 57 236 0.0 0.0 0.03 0.62 0.62 42 1011.1
20260507223025 57 244 0.0 3.5 0.03 0.62 0.62 43 1011.1
20260507221524 57 227 0.0 4.3 0.03 0.62 0.62 44 1011.2
20260507220022 57 254 0.0 3.5 0.03 0.62 0.62 43 1011.3
20260507214526 57 226 0.0 0.9 0.10 0.59 0.59 43 1011.3
20260507213022 57 290 0.0 3.5 0.12 0.59 0.59 43 1011.2
20260507211517 57 249 0.0 0.9 0.14 0.59 0.59 44 1011.3
20260507210032 56 219 0.0 9.6 0.14 0.59 0.59 42 1011.4
20260507204515 56 238 0.0 1.7 0.06 0.50 0.49 42 1011.5
20260507203014 56 294 0.0 7.0 0.13 0.48 0.47 44 1011.7
20260507201513 56 209 0.0 7.8 0.11 0.46 0.45 47 1011.8
20260507200015 55 252 0.0 6.1 0.12 0.46 0.45 47 1011.7